Location: Potawatomi Wildlife Park
(41.2308°N, 86.1050°W)
Time: 15:24:54
(UTC-05:00)

Daily predictions for brighter satellites

Satellite Brightness Start Highest point End
(mag) Time Altitude Azimuth Time Altitude Azimuth Time Altitude Azimuth
AQUARIUS 4.2 18:12:46 10° SSE 18:17:15 89° ENE 18:21:47 10° NNW
Cosmos 2366 rocket 4.2 18:12:24 10° N 18:18:25 48° ENE 18:24:20 10° SSE
Cosmos 44 Rocket 3.7 18:14:02 10° S 18:18:27 44° ESE 18:22:58 10° NE
Cosmos 1766 Rocket 4.1 18:14:41 10° SSE 18:18:38 36° E 18:22:36 10° NNE
IRAS Rocket 4.2 18:13:39 10° SSE 18:19:10 75° ENE 18:24:46 10° NNW
Cosmos 1777 Rocket 4.4 18:17:30 10° N 18:22:27 40° ENE 18:27:24 10° SE
FENGYUN 3A 4.1 18:19:39 10° SE 18:24:33 38° ENE 18:29:28 10° N
SL-14 R/B 3.2 18:22:32 10° S 18:26:31 80° E 18:30:28 10° N
SPOT 3 Rocket 4.2 18:23:18 10° SE 18:27:50 32° ENE 18:32:23 10° N
Cosmos 1484 Rocket 3.9 18:25:15 10° S 18:28:54 47° W 18:32:32 10° NNW
Cosmos 1726 3.1 18:25:34 10° NNW 18:29:07 50° W 18:32:40 10° S
Okean 3 Rocket 3.7 18:25:21 10° S 18:29:53 86° W 18:34:25 10° N
SKYMED 2 3.9 18:27:22 10° NNE 18:31:34 46° E 18:35:44 10° S
Cosmos 1151 Rocket 4.3 18:30:46 10° NNE 18:33:58 19° ENE 18:37:08 10° ESE
Meteor 1-28 Rocket 4.0 18:30:21 10° N 18:34:05 56° WNW 18:37:47 10° SSW
METEOR-M 4.1 18:30:13 10° SSE 18:35:32 76° ENE 18:40:54 10° N
ATLAS 2AS CENTAUR R/B 4.3 18:28:47 10° NW 18:36:06 44° WSW 18:42:51 10° S
Cosmos 2058 4.1 18:33:13 10° SE 18:36:30 23° E 18:39:49 10° NE
YAOGAN 1 2.5 18:33:27 10° SSE 18:37:45 75° ENE 18:42:05 10° N
Cosmos 968 Rocket 4.1 18:32:49 10° NNW 18:37:54 60° WSW 18:42:54 10° S
ALOS 2.5 18:34:04 10° SE 18:38:33 49° ENE 18:43:03 10° N
Geosat 4.2 18:34:06 10° NNE 18:39:07 73° WNW 18:44:07 10° SW
Cosmos 2221 4.0 18:41:32 10° NNW 18:45:38 41° W 18:49:44 10° SSW
MONITOR-E 4.1 18:45:42 10° SSE 18:48:41 55° ENE 18:51:42 10° N
SeaSat 1 4.4 18:46:39 10° S 18:51:06 34° WSW 18:55:35 10° NW
Lacrosse 5 3.7 18:48:48 10° SE 18:51:08 13° ESE 18:52:14 12° ESE
Cosmos 864 Rocket 4.5 18:44:50 10° N 18:51:12 82° E 18:57:30 10° S
CZ-4 R/B 2.5 18:47:07 10° S 18:51:14 52° W 18:55:24 10° NNW
Meteor 1-27 4.3 18:48:09 10° N 18:53:46 54° ENE 18:59:25 10° SSE
Meteor 1-11 4.2 18:49:56 10° S 18:55:26 64° E 19:01:02 10° NNE
TSX-5 4.2 18:52:33 10° SW 18:55:39 50° WNW 18:59:10 10° NNE
H-2A R/B 3.5 18:53:21 10° SE 18:56:42 30° ENE 19:00:07 10° N
Cosmos 1346 Rocket 2.7 18:53:13 10° N 18:57:06 60° ENE 19:00:56 10° SSE
COSMOS 2406 3.4 18:52:06 10° S 18:57:37 51° ESE 19:03:08 10° NNE
CZ-4C R/B 3.7 18:55:19 10° SE 18:57:47 14° ESE 18:57:47 14° ESE
NOSS 3-4 (A) 3.8 18:52:12 10° NW 18:59:19 86° NE 19:06:56 10° SE
NOSS 3-4 (C) 3.8 18:52:19 10° NW 18:59:25 85° NE 19:07:03 10° SE
Cosmos 2151 3.4 18:57:04 10° SSE 19:01:03 40° E 19:05:05 10° NNE
Cosmos 1315 Rocket 3.6 18:58:22 10° SSW 19:02:12 53° WNW 19:06:03 10° N
Cosmos 1455 2.6 18:58:49 10° N 19:02:28 39° ENE 19:06:03 10° SSE
Cosmos 2098 Rocket 3.8 18:58:52 10° N 19:04:18 66° E 19:11:00 10° SSE
Cosmos 1408 Rocket 3.8 19:04:16 10° SSW 19:08:32 69° W 19:12:51 10° N
Cosmos 1515 Rocket 3.6 19:05:34 10° N 19:09:48 50° ENE 19:14:00 10° SSE
FengYun 1-2 T 4.4 19:06:35 10° SE 19:11:58 49° ENE 19:17:21 10° N
Envisat 4.4 19:13:56 19° NE 19:13:56 19° NE 19:16:22 10° NNE
GEOS 3 Rocket 4.5 19:11:16 24° E 19:13:19 31° NE 19:18:00 10° NNW
DMSP B5D1-3 4.4 19:09:01 10° NNE 19:14:08 75° ESE 19:19:14 10° S
Cosmos 1626 2.8 19:12:32 10° SSW 19:16:11 55° W 19:19:51 10° N
Cosmos 1570 Rocket 4.3 19:13:17 10° S 19:18:20 46° ESE 19:21:26 22° NE
COSMO-SKYMED 1 3.4 19:15:24 10° N 19:19:37 51° WNW 19:23:49 10° SSW
Cosmos 44 4.3 19:17:01 10° WSW 19:21:02 38° NW 19:24:51 12° NNE
Cosmos 1500 Rocket 3.6 19:17:39 10° S 19:22:02 60° E 19:26:10 12° NNE
Cosmos 371 Rocket 3.2 19:19:44 10° S 19:24:29 67° ESE 19:27:38 21° NNE
EO 1 Del DPAF 3.5 19:20:52 10° N 19:24:41 70° WNW 19:28:29 10° SSW
NOAA 12 4.4 19:21:47 10° S 19:26:59 67° WSW 19:32:14 10° NNW
Meteor 2-15 4.4 19:24:12 10° S 19:30:13 64° E 19:36:14 10° NNE
Tiangong 1 2.3 19:29:16 10° W 19:31:25 27° SSW 19:31:25 27° SSW
ERS-2 2.6 19:33:25 10° S 19:37:03 63° WSW 19:40:44 10° NNW
Cosmos 1743 Rocket 3.7 19:32:45 10° SSW 19:37:05 71° W 19:41:26 10° N
Cosmos 2228 Rocket 3.3 19:33:53 10° NNW 19:38:27 73° W 19:43:01 10° S
Cosmos 1328 Rocket 4.5 19:35:50 10° NNW 19:40:03 49° W 19:44:13 10° SSW
Thor Agena Rocket 3.5 19:44:12 37° NE 19:46:07 59° ESE 19:51:14 10° S
ERBS 4.3 19:47:20 10° NNW 19:48:43 21° NNW 19:48:43 21° NNW
Meteor 2-15 Rocket 4.3 19:51:26 10° S 19:57:34 87° E 20:03:43 10° N
Cosmos 909 Rocket 4.1 19:51:27 10° NNW 19:58:11 78° WSW 20:04:07 11° SSE
Cosmos 1821 Rocket 4.2 20:03:20 10° NNW 20:09:27 69° W 20:15:39 10° S
Cosmos 1535 Rocket 4.5 20:04:46 10° N 20:10:55 78° W 20:16:59 10° S
Cosmos 1980 Rocket 4.4 20:10:21 10° N 20:10:53 12° N 20:10:53 12° N
Cosmos 2082 Rocket 4.0 20:18:02 10° S 20:19:36 19° S 20:19:36 19° S
Lacrosse 5 2.9 20:28:18 10° SW 20:31:29 39° SW 20:31:29 39° SW
Cosmos 1898 Rocket 4.2 20:29:37 10° NNW 20:33:42 50° NW 20:33:42 50° NW
CZ-4C R/B 3.2 20:40:08 10° SW 20:43:03 36° SW 20:43:03 36° SW
